Regional Weather Roundup
Issued by NWS

Home | Current Version | Previous Version | Graphics & Text | Print | Product List | Glossary On
Versions: 1 2 3 4 5 6 7 8 9 10 11 12 13 14 15 16 17 18 19 20 21 22 23 24 25 26 27 28 29 30 31 32 33 34 35 36 37 38 39 40 41 42 43 44 45 46 47 48 49 50
000
ASUS45 KBOU 201807
RWRCO

WEATHER ROUNDUP FOR COLORADO
NATIONAL WEATHER SERVICE DENVER/BOULDER CO
1200 PM MDT MON APR 20 2015

NOTE: "FAIR" INDICATES FEW OR NO CLOUDS BELOW 12000 FEET WITH NO
SIGNIFICANT WEATHER AND/OR OBSTRUCTIONS TO VISIBILITY.

COZ001>005-013-030-031-201900-
...NORTHWEST COLORADO...

CITY           SKY/WX    TMP DP  RH WIND       PRES   REMARKS
CRAIG          PTSUNNY   48  34  58 E3        30.02F
HAYDEN         PTSUNNY   43  32  65 CALM      30.02F
MEEKER         MOSUNNY   51  31  46 VRB6      30.00F
MOUNT WERNER   NOT AVBL
STEAMBOAT SPGS PTSUNNY   42  32  67 SW5       30.02F
WALDEN         CLOUDY    37  23  56 NW5       29.99F
$$

COZ006>008-011-201900-
...WEST CENTRAL VALLEYS...

CITY           SKY/WX    TMP DP  RH WIND       PRES   REMARKS
GRAND JUNCTION SUNNY     57  40  52 S7        29.97F
MONTROSE       MOSUNNY   55  41  59 VRB3      30.00F
EAGLE          PTSUNNY   48  34  57 CALM      30.01F
RIFLE          SUNNY     54  33  45 CALM      29.99F
DELTA          MOSUNNY   57  41  55 CALM      29.99F
NUCLA          MOSUNNY   57  30  35 W3        30.03F
$$

COZ017>023-064>068-201900-
...SOUTHWEST COLORADO...

CITY           SKY/WX    TMP DP  RH WIND       PRES   REMARKS
DURANGO        MOSUNNY   62  23  22 SW23G33   29.96F
CORTEZ         SUNNY     63  25  23 W10       29.98F
PAGOSA SPRINGS CLOUDY    51  20  28 N3        30.00F
TELLURIDE      CLOUDY    46  19  33 NW6G23    30.08F
WOLF CREEK PAS CLOUDY    30  21  69 SW10G22   30.15F WCI  21
$$

COZ009-010-012-014-032>034-037-058>063-201900-
...CENTRAL COLORADO...

CITY           SKY/WX    TMP DP  RH WIND       PRES   REMARKS
ASPEN          CLOUDY    43  26  51 W7        30.02S
BUENA VISTA    PTSUNNY   44  29  57 SW9       29.99F
COPPER MTN     NOT AVBL
BERTHOUD PASS  CLOUDY    18   9  68 W32G40    30.03F WCI  -3
COTTONWOOD PAS CLOUDY    41  23  48 NW8       30.03F
GUNNISON       MOSUNNY   46  30  53 W8        30.04F
KREMMLING      MOSUNNY   43  30  61 S6        30.02F
LEADVILLE      PTSUNNY   32  19  58 W10G20    30.03S WCI  24
MONARCH PASS   CLOUDY    25  23  93 MISG      30.18S FOG
SALIDA         PTSUNNY   51  26  38 CALM      30.05F
SUNLIGHT       PTSUNNY   32  30  93 SW3       30.13S
WILKERSON PASS MOSUNNY   32  19  59 N6G18     30.07S WCI  26
$$

COZ069>075-201900-
...SAN LUIS VALLEY/SANGRE DE CRISTO MOUNTAINS...

CITY           SKY/WX    TMP DP  RH WIND       PRES   REMARKS
ALAMOSA        CLOUDY    49  26  41 SW15G21   30.00F
LA VETA PASS   CLOUDY    39  28  65 SW3       30.06S
SAGUACHE       MOSUNNY   52  25  35 NW21G26   30.00F
$$

COZ035-036-038>040-201900-
...NORTHERN COLORADO FRONT RANGE...

CITY           SKY/WX    TMP DP  RH WIND       PRES   REMARKS
DENVER INTL AP MOSUNNY   47  28  47 NE5       29.98F
DMNS CITY PARK   N/A     49  25  40 W3G13     29.98S
AURORA         MOSUNNY   48  27  44 CALM      29.99F
FRONT RANGE AP MOSUNNY   48  30  49 N6        29.99F
ERIE MUNI ARPT MOSUNNY   48  28  45 NE3       29.98F
BOULDER MUN AP MOSUNNY   48  30  49 E5        29.97F
CENTENNIAL     MOSUNNY   48  27  44 N6        29.98F
BROOMFIELD     MOSUNNY   48  28  46 NE6       29.99F
FORT COLLINS   MOSUNNY   45  34  65 SW6       30.00F
LONGMONT       SUNNY     53  32  45 S5        30.00F
$$

COZ041-046-047-076>085-087-088-201900-
...PIKES PEAK/PALMER DIVIDE AND SOUTHERN FOOTHILLS...

CITY           SKY/WX    TMP DP  RH WIND       PRES   REMARKS
COLO. SPRINGS  MOSUNNY   46  30  53 S9        30.00F
A. F. ACADEMY  PTSUNNY   45  28  51 S9        29.98F
ELLICOTT       SUNNY    N/A N/A N/A S3        29.99F
FALCON         CLOUDY    46  28  51 SW7       30.01F
FORT CARSON    NOT AVBL
LIMON          MOSUNNY   47  28  47 CALM      29.99F
MONUMENT HILL  SUNNY     45  27  49 N8        29.98F
TRINIDAD       MOSUNNY   52  32  46 VRB3      29.97F
$$

COZ042>045-048>051-090-091-201900-
...NORTHEAST COLORADO...

CITY           SKY/WX    TMP DP  RH WIND       PRES   REMARKS
GREELEY ARPT   MOSUNNY   48  28  46 CALM      30.00F
AKRON          PTSUNNY   48  28  46 NW13G22   29.98F
BURLINGTON     MOSUNNY   52  27  38 NW10G17   30.00F
WRAY           SUNNY     54  24  31 NW16G23   29.98F
STERLING       PTSUNNY   52  28  40 NW9       29.95F
HOLYOKE        MOSUNNY   55  27  33 NW15G21   29.96F
FORT MORGAN    MOSUNNY   49  27  42 W10G17    29.99F
$$

COZ086-089-092>099-201900-
...SOUTHEAST COLORADO...

CITY           SKY/WX    TMP DP  RH WIND       PRES   REMARKS
PUEBLO         SUNNY     51  27  39 MISG      29.98F
LA JUNTA       MOSUNNY   52  30  43 VRB3      30.00F
LAMAR          CLOUDY    51  29  42 S3        30.00F
SPRINGFIELD      N/A     53  28  38 S8        29.99F
$$


USA.gov is the U.S. government's official web portal to all federal, state and local government web resources and services.